LiveATC.Net - Listen to live air traffic control over the Internet!


ICAO: KDAW  IATA: DAW   Airport: Skyhaven Airport
City: Rochester   State/Province: New Hampshire
Country: United States   Continent: North America
KDAW METAR Weather: KDAW 221751Z AUTO 11007KT 10SM BKN019 OVC032 19/14 A3008 RMK AO2 SLP181 T01940139 10200 20172 58009
KDAW ADS-B Flight Tracking  (ADSBExchange)
KDAW Flight Activity (FlightAware)
KDAW Airport Info   (iFlightPlanner)
KDAW VFR Sectional Chart   (iFlightPlanner) 
KDAW IFR Low Altitude Chart   (iFlightPlanner) 
KDAW IFR High Altitude Chart   (iFlightPlanner) 

KCON/KDAW/KFIT CTAF
Feed Status: UP   Listeners: 1
Listen in your browser - HTML5 player (in browser, HTML5)
Click here to listen with your own player (launches your MP3 player)
Archive Access: KCON/KDAW/KFIT CTAF
FacilityFrequency
NH/MA Area CTAF122.700

NOTICE

Unauthorized use prohibited. See LiveATC.net Terms of Service


Airport/ARTCC Code
Frequency Search
(e.g., 124.400, 128.75)
Site-wide search
 


Browse Feeds
Top 50 Feeds
HF Oceanic Feeds
Coverage Map
Bad Weather Areas

LiveATC FAQ

Increase Coverage

Contact LiveATC.net
Press Inquiries

LiveATC on iPhone
LiveATC on Android

LiveATC Mobile
(Mobile browser)

ATC Audio Archives
Interesting Recordings

LiveATC Forums


Home Page
About LiveATC.net


Terms of Use
Privacy Policy

AIRMETs/SIGMETs

FAA Airport Status
NAS Status
Arrival Demand


Server Software By:
Icecast.org
Liquidsoap